| time (UTC) | temp F | wind direction | speed knots | gust knots | rain 1hr in | rain 24hr in | rain mn in | humidity % | barometer mb |
| 20260504201508 | 78 | 211 | 6.1 | 13.0 | 0.00 | 0.01 | 0.01 | 50 | 1008.6 |
| 20260504201004 | 77 | 234 | 2.6 | 13.9 | 0.00 | 0.01 | 0.01 | 52 | 1008.5 |
| 20260504200502 | 76 | 206 | 5.2 | 13.9 | 0.00 | 0.01 | 0.01 | 52 | 1008.7 |
| 20260504200005 | 76 | 221 | 5.2 | 12.2 | 0.00 | 0.01 | 0.01 | 53 | 1008.8 |
| 20260504195502 | 75 | 213 | 5.2 | 12.2 | 0.00 | 0.01 | 0.01 | 54 | 1008.8 |
| 20260504195100 | 75 | 223 | 7.0 | 12.2 | 0.00 | 0.01 | 0.01 | 52 | 1008.9 |
| 20260504195001 | 75 | 234 | 7.0 | 12.2 | 0.00 | 0.01 | 0.01 | 53 | 1008.9 |
| 20260504194605 | 75 | 236 | 5.2 | 16.5 | 0.00 | 0.01 | 0.01 | 54 | 1008.9 |
| 20260504194059 | 74 | 213 | 8.7 | 16.5 | 0.00 | 0.01 | 0.01 | 54 | 1009.0 |
| 20260504193557 | 73 | 210 | 7.8 | 13.9 | 0.00 | 0.01 | 0.01 | 54 | 1009.0 |
| 20260504193107 | 73 | 215 | 7.8 | 13.9 | 0.00 | 0.01 | 0.01 | 55 | 1009.2 |
| 20260504192556 | 73 | 215 | 7.8 | 13.9 | 0.00 | 0.01 | 0.01 | 54 | 1009.2 |
| 20260504192056 | 73 | 208 | 8.7 | 13.9 | 0.00 | 0.01 | 0.01 | 55 | 1009.3 |
| 20260504191610 | 73 | 219 | 7.0 | 13.0 | 0.00 | 0.01 | 0.01 | 55 | 1009.4 |
| 20260504191056 | 71 | 207 | 3.5 | 13.9 | 0.00 | 0.01 | 0.01 | 58 | 1009.4 |
| 20260504190554 | 71 | 236 | 7.8 | 13.9 | 0.00 | 0.01 | 0.01 | 56 | 1009.5 |
| 20260504190107 | 70 | 217 | 6.1 | 13.0 | 0.00 | 0.01 | 0.01 | 61 | 1009.4 |
| 20260504185554 | 69 | 227 | 6.1 | 13.0 | 0.00 | 0.01 | 0.01 | 63 | 1009.6 |
| 20260504185053 | 68 | 227 | 6.1 | 13.9 | 0.00 | 0.01 | 0.01 | 65 | 1009.7 |
| 20260504184555 | 67 | 216 | 6.1 | 11.3 | 0.00 | 0.01 | 0.01 | 67 | 1009.8 |
| 20260504184053 | 67 | 206 | 2.6 | 13.0 | 0.00 | 0.01 | 0.01 | 72 | 1010.0 |
| 20260504183555 | 66 | 217 | 6.1 | 13.0 | 0.00 | 0.01 | 0.01 | 67 | 1010.0 |
| 20260504183053 | 67 | 182 | 6.1 | 13.0 | 0.00 | 0.01 | 0.01 | 65 | 1009.4 |
| 20260504182552 | 68 | 258 | 5.2 | 13.0 | 0.00 | 0.01 | 0.01 | 62 | 1010.4 |
| 20260504182051 | 68 | 232 | 7.0 | 16.5 | 0.00 | 0.01 | 0.01 | 59 | 1010.9 |
| 20260504181559 | 69 | 235 | 10.4 | 16.5 | 0.00 | 0.01 | 0.01 | 57 | 1011.1 |
| 20260504181051 | 70 | 226 | 8.7 | 20.9 | 0.00 | 0.01 | 0.01 | 55 | 1010.9 |
| 20260504180552 | 70 | 202 | 9.6 | 20.9 | 0.00 | 0.01 | 0.01 | 54 | 1010.6 |
| 20260504180052 | 71 | 234 | 11.3 | 15.6 | 0.00 | 0.01 | 0.01 | 52 | 1010.4 |
| 20260504175548 | 72 | 218 | 7.8 | 13.9 | 0.00 | 0.01 | 0.01 | 52 | 1010.3 |
| 20260504175049 | 72 | 233 | 7.8 | 18.2 | 0.00 | 0.01 | 0.01 | 52 | 1010.1 |
| 20260504174549 | 73 | 216 | 7.8 | 20.0 | 0.00 | 0.01 | 0.01 | 51 | 1010.0 |
| 20260504174049 | 74 | 229 | 7.8 | 12.2 | 0.00 | 0.01 | 0.01 | 51 | 1009.9 |
| 20260504173548 | 74 | 248 | 3.5 | 12.2 | 0.00 | 0.01 | 0.01 | 52 | 1009.9 |
| 20260504173052 | 73 | 259 | 7.8 | 12.2 | 0.00 | 0.01 | 0.01 | 52 | 1009.8 |
| 20260504172545 | 72 | 219 | 3.5 | 11.3 | 0.00 | 0.01 | 0.01 | 53 | 1009.9 |
| 20260504172044 | 72 | 219 | 6.1 | 11.3 | 0.00 | 0.01 | 0.01 | 53 | 1010.0 |
| 20260504171543 | 71 | 234 | 3.5 | 9.6 | 0.00 | 0.01 | 0.01 | 56 | 1010.0 |
| 20260504171041 | 70 | 207 | 5.2 | 9.6 | 0.00 | 0.01 | 0.01 | 56 | 1010.0 |
| 20260504170536 | 69 | 258 | 4.3 | 11.3 | 0.00 | 0.01 | 0.01 | 59 | 1010.2 |
| 20260504151047 | 62 | 219 | 6.1 | 13.0 | 0.00 | 0.01 | 0.01 | 68 | 1011.8 |
| 20260504150544 | 62 | 225 | 5.2 | 13.0 | 0.00 | 0.01 | 0.01 | 69 | 1011.7 |
| 20260504141026 | 57 | 213 | 5.2 | 13.9 | 0.01 | 0.01 | 0.01 | 78 | 1012.5 |
| 20260504140526 | 57 | 219 | 6.1 | 13.0 | 0.01 | 0.01 | 0.01 | 78 | 1012.7 |
| 20260504130516 | 56 | 292 | 5.2 | 13.0 | 0.00 | 0.00 | 0.00 | 69 | 1013.1 |
| 20260504110552 | 54 | 227 | 1.7 | 6.1 | 0.00 | 0.00 | 0.00 | 62 | 1012.4 |
| 20260504100538 | 53 | 202 | 4.3 | 7.8 | 0.00 | 0.00 | 0.00 | 61 | 1012.4 |
| 20260504081526 | 52 | 177 | 0.0 | 1.7 | 0.00 | 0.00 | 0.00 | 61 | 1013.0 |
| 20260504081026 | 52 | 177 | 0.0 | 1.7 | 0.00 | 0.00 | 0.00 | 61 | 1012.9 |
| 20260504080524 | 52 | 173 | 0.0 | 1.7 | 0.00 | 0.00 | 0.00 | 61 | 1013.0 |
| 20260504050506 | 57 | 228 | 5.2 | 9.6 | 0.00 | 0.00 | 0.00 | 51 | 1014.1 |
| 20260504050005 | 56 | 186 | 5.2 | 9.6 | 0.00 | 0.00 | 0.00 | 52 | 1014.0 |
| 20260504045506 | 56 | 234 | 3.5 | 7.0 | 0.00 | 0.00 | 0.00 | 53 | 1014.0 |
| 20260504045005 | 56 | 176 | 3.5 | 7.0 | 0.00 | 0.00 | 0.00 | 54 | 1014.2 |
| 20260504044509 | 56 | 223 | 2.6 | 4.3 | 0.00 | 0.00 | 0.00 | 56 | 1014.6 |
| 20260504044005 | 56 | 211 | 1.7 | 5.2 | 0.00 | 0.00 | 0.00 | 55 | 1014.6 |
| 20260504043505 | 56 | 246 | 0.0 | 5.2 | 0.00 | 0.00 | 0.00 | 57 | 1014.8 |
| 20260504043008 | 56 | 321 | 0.0 | 4.3 | 0.00 | 0.00 | 0.00 | 62 | 1014.7 |
| 20260504042505 | 56 | 322 | 0.0 | 4.3 | 0.00 | 0.00 | 0.00 | 60 | 1014.9 |
| 20260504042002 | 56 | 320 | 0.9 | 4.3 | 0.00 | 0.00 | 0.00 | 57 | 1014.7 |
| 20260504041503 | 56 | 196 | 0.0 | 0.0 | 0.00 | 0.00 | 0.00 | 59 | 1014.9 |
| 20260504041002 | 56 | 196 | 0.0 | 0.0 | 0.00 | 0.00 | 0.00 | 61 | 1015.0 |
| 20260504040502 | 56 | 196 | 0.0 | 0.0 | 0.00 | 0.00 | 0.00 | 60 | 1014.9 |
| 20260504040002 | 57 | 196 | 0.0 | 0.0 | 0.00 | 0.00 | 0.00 | 59 | 1014.7 |
| 20260504035502 | 57 | 196 | 0.0 | 0.0 | 0.00 | 0.00 | 0.00 | 58 | 1014.9 |
| 20260504035002 | 57 | 196 | 0.0 | 0.0 | 0.00 | 0.00 | 0.00 | 57 | 1015.2 |
| 20260504034502 | 57 | 196 | 0.0 | 0.0 | 0.00 | 0.00 | 0.00 | 55 | 1015.0 |
| 20260504034002 | 57 | 196 | 0.0 | 0.0 | 0.00 | 0.00 | 0.00 | 56 | 1014.9 |
| 20260504033501 | 57 | 196 | 0.0 | 0.0 | 0.00 | 0.00 | 0.00 | 57 | 1014.8 |
| 20260504033001 | 57 | 196 | 0.0 | 0.0 | 0.00 | 0.00 | 0.00 | 56 | 1014.8 |
| 20260504032501 | 57 | 196 | 0.0 | 0.0 | 0.00 | 0.00 | 0.00 | 55 | 1014.8 |
| 20260504032102 | 57 | 196 | 0.0 | 0.0 | 0.00 | 0.00 | 0.00 | 56 | 1014.8 |
| 20260504031623 | 58 | 196 | 0.0 | 0.0 | 0.00 | 0.00 | 0.00 | 55 | 1014.6 |
| 20260504031100 | 58 | 259 | 0.0 | 0.0 | 0.00 | 0.00 | 0.00 | 54 | 1014.7 |
| 20260504030558 | 58 | 259 | 0.0 | 0.0 | 0.00 | 0.00 | 0.00 | 55 | 1014.8 |
| 20260504030059 | 58 | 274 | 0.0 | 0.0 | 0.00 | 0.00 | 0.00 | 55 | 1014.9 |
| 20260504025600 | 58 | 275 | 0.0 | 0.0 | 0.00 | 0.00 | 0.00 | 55 | 1015.0 |
| 20260504025058 | 58 | 275 | 0.0 | 0.0 | 0.00 | 0.00 | 0.00 | 55 | 1015.1 |
| 20260504024604 | 58 | 267 | 0.0 | 0.0 | 0.00 | 0.00 | 0.00 | 53 | 1015.1 |
| 20260504024057 | 58 | 267 | 0.0 | 0.0 | 0.00 | 0.00 | 0.00 | 51 | 1015.1 |
| 20260504023557 | 58 | 267 | 0.0 | 0.0 | 0.00 | 0.00 | 0.00 | 53 | 1015.0 |
| 20260504023058 | 58 | 267 | 0.0 | 1.7 | 0.00 | 0.00 | 0.00 | 47 | 1014.9 |
| 20260504022557 | 58 | 267 | 0.0 | 3.5 | 0.00 | 0.00 | 0.00 | 47 | 1015.0 |
| 20260504022057 | 59 | 271 | 0.9 | 3.5 | 0.00 | 0.00 | 0.00 | 50 | 1014.9 |
| 20260504021555 | 59 | 295 | 0.9 | 5.2 | 0.00 | 0.00 | 0.00 | 51 | 1014.8 |
| 20260504021054 | 59 | 295 | 1.7 | 5.2 | 0.00 | 0.00 | 0.00 | 50 | 1014.7 |
| 20260504020558 | 59 | 272 | 0.9 | 2.6 | 0.00 | 0.00 | 0.00 | 48 | 1014.6 |
| 20260504020108 | 59 | 217 | 0.0 | 4.3 | 0.00 | 0.00 | 0.00 | 47 | 1014.5 |
| 20260504015557 | 59 | 215 | 2.6 | 4.3 | 0.00 | 0.00 | 0.00 | 42 | 1014.4 |
| 20260504015054 | 60 | 188 | 0.0 | 3.5 | 0.00 | 0.00 | 0.00 | 42 | 1014.3 |
| 20260504014553 | 60 | 187 | 0.0 | 3.5 | 0.00 | 0.00 | 0.00 | 41 | 1014.2 |
| 20260504014052 | 60 | 187 | 0.9 | 2.6 | 0.00 | 0.00 | 0.00 | 40 | 1014.0 |
| 20260504013553 | 60 | 187 | 0.0 | 3.5 | 0.00 | 0.00 | 0.00 | 41 | 1014.0 |
| 20260504013052 | 60 | 187 | 0.0 | 5.2 | 0.00 | 0.00 | 0.00 | 41 | 1013.8 |
| 20260504012554 | 60 | 188 | 0.9 | 5.2 | 0.00 | 0.00 | 0.00 | 40 | 1013.9 |
| 20260504012052 | 60 | 189 | 1.7 | 4.3 | 0.00 | 0.00 | 0.00 | 40 | 1013.9 |
| 20260504011548 | 60 | 190 | 2.6 | 5.2 | 0.00 | 0.00 | 0.00 | 40 | 1014.0 |
| 20260504011049 | 60 | 201 | 2.6 | 5.2 | 0.00 | 0.00 | 0.00 | 40 | 1014.1 |
| 20260504010548 | 60 | 186 | 0.9 | 2.6 | 0.00 | 0.00 | 0.00 | 40 | 1014.1 |
| 20260504010050 | 60 | 191 | 0.9 | 5.2 | 0.00 | 0.00 | 0.00 | 40 | 1014.2 |
| 20260504005548 | 60 | 190 | 1.7 | 5.2 | 0.00 | 0.00 | 0.00 | 40 | 1014.2 |
| 20260504005052 | 60 | 200 | 0.9 | 4.3 | 0.00 | 0.00 | 0.00 | 41 | 1014.2 |
| 20260504004547 | 60 | 207 | 1.7 | 4.3 | 0.00 | 0.00 | 0.00 | 40 | 1014.3 |
| 20260504004047 | 60 | 210 | 0.9 | 4.3 | 0.00 | 0.00 | 0.00 | 39 | 1014.3 |
| 20260504003546 | 61 | 212 | 1.7 | 4.3 | 0.00 | 0.00 | 0.00 | 39 | 1014.4 |
| 20260504003046 | 61 | 212 | 2.6 | 4.3 | 0.00 | 0.00 | 0.00 | 38 | 1014.3 |
| 20260504002546 | 61 | 205 | 1.7 | 4.3 | 0.00 | 0.00 | 0.00 | 38 | 1014.3 |
| 20260504002046 | 61 | 217 | 1.7 | 5.2 | 0.00 | 0.00 | 0.00 | 37 | 1014.3 |
| 20260504001551 | 61 | 220 | 1.7 | 5.2 | 0.00 | 0.00 | 0.00 | 37 | 1014.2 |
| 20260504001044 | 62 | 227 | 2.6 | 5.2 | 0.00 | 0.00 | 0.00 | 36 | 1014.3 |
| 20260504000543 | 62 | 224 | 2.6 | 4.3 | 0.00 | 0.00 | 0.00 | 36 | 1014.3 |
| 20260504000043 | 62 | 220 | 2.6 | 4.3 | 0.00 | 0.00 | 0.00 | 36 | 1014.3 |
| 20260503235543 | 62 | 227 | 1.7 | 5.2 | 0.00 | 0.00 | 0.00 | 36 | 1014.3 |
| 20260503235045 | 62 | 229 | 2.6 | 5.2 | 0.00 | 0.00 | 0.00 | 35 | 1014.4 |
| 20260503234601 | 62 | 235 | 2.6 | 6.1 | 0.00 | 0.00 | 0.00 | 34 | 1014.3 |
| 20260503234046 | 62 | 236 | 3.5 | 7.8 | 0.00 | 0.00 | 0.00 | 34 | 1014.3 |
| 20260503233545 | 63 | 231 | 4.3 | 10.4 | 0.00 | 0.00 | 0.00 | 33 | 1014.2 |
| 20260503233047 | 63 | 262 | 6.1 | 10.4 | 0.00 | 0.00 | 0.00 | 33 | 1014.3 |
| 20260503232542 | 63 | 234 | 4.3 | 7.8 | 0.00 | 0.00 | 0.00 | 33 | 1014.3 |
| 20260503232041 | 63 | 240 | 3.5 | 8.7 | 0.00 | 0.00 | 0.00 | 33 | 1014.3 |
| 20260503231538 | 63 | 215 | 4.3 | 8.7 | 0.00 | 0.00 | 0.00 | 32 | 1014.4 |
| 20260503231037 | 64 | 262 | 3.5 | 8.7 | 0.00 | 0.00 | 0.00 | 32 | 1014.5 |
| 20260503230539 | 63 | 291 | 4.3 | 8.7 | 0.00 | 0.00 | 0.00 | 32 | 1014.6 |
| 20260503230036 | 63 | 248 | 2.6 | 8.7 | 0.00 | 0.00 | 0.00 | 33 | 1014.6 |
| 20260503225536 | 63 | 232 | 5.2 | 8.7 | 0.00 | 0.00 | 0.00 | 33 | 1014.6 |
| 20260503225036 | 63 | 221 | 5.2 | 9.6 | 0.00 | 0.00 | 0.00 | 32 | 1014.6 |
| 20260503224535 | 64 | 261 | 4.3 | 10.4 | 0.00 | 0.00 | 0.00 | 32 | 1014.9 |
| 20260503224035 | 64 | 262 | 6.1 | 10.4 | 0.00 | 0.00 | 0.00 | 32 | 1014.9 |
| 20260503223535 | 64 | 241 | 6.1 | 10.4 | 0.00 | 0.00 | 0.00 | 32 | 1014.6 |
| 20260503223035 | 64 | 226 | 6.1 | 10.4 | 0.00 | 0.00 | 0.00 | 31 | 1015.0 |
| 20260503222538 | 65 | 227 | 4.3 | 8.7 | 0.00 | 0.00 | 0.00 | 31 | 1015.0 |
| 20260503222034 | 64 | 222 | 4.3 | 8.7 | 0.00 | 0.00 | 0.00 | 32 | 1015.0 |
| 20260503221505 | 64 | 250 | 5.2 | 11.3 | 0.00 | 0.00 | 0.00 | 32 | 1015.1 |
| 20260503221005 | 64 | 237 | 6.1 | 11.3 | 0.00 | 0.00 | 0.00 | 32 | 1015.0 |
| 20260503220506 | 64 | 213 | 5.2 | 10.4 | 0.00 | 0.00 | 0.00 | 32 | 1014.8 |
| 20260503220005 | 65 | 226 | 7.0 | 10.4 | 0.00 | 0.00 | 0.00 | 31 | 1015.0 |
| 20260503215502 | 66 | 269 | 3.5 | 11.3 | 0.00 | 0.00 | 0.00 | 31 | 1015.0 |
| 20260503215003 | 66 | 250 | 2.6 | 11.3 | 0.00 | 0.00 | 0.00 | 30 | 1015.0 |
| 20260503214602 | 67 | 242 | 4.3 | 9.6 | 0.00 | 0.00 | 0.00 | 30 | 1015.0 |
| 20260503214032 | 67 | 229 | 3.5 | 8.7 | 0.00 | 0.00 | 0.00 | 30 | 1015.0 |
| 20260503213532 | 66 | 232 | 3.5 | 9.6 | 0.00 | 0.00 | 0.00 | 31 | 1015.1 |
| 20260503213036 | 66 | 219 | 5.2 | 9.6 | 0.00 | 0.00 | 0.00 | 30 | 1015.0 |
| 20260503212531 | 67 | 218 | 2.6 | 6.1 | 0.00 | 0.00 | 0.00 | 30 | 1015.1 |
| 20260503212031 | 67 | 232 | 1.7 | 9.6 | 0.00 | 0.00 | 0.00 | 29 | 1015.1 |
| 20260503211530 | 67 | 249 | 6.1 | 9.6 | 0.00 | 0.00 | 0.00 | 30 | 1015.1 |
| 20260503211001 | 67 | 5 | 1.7 | 7.8 | 0.00 | 0.00 | 0.00 | 31 | 1015.2 |
| 20260503210501 | 66 | 281 | 4.3 | 7.8 | 0.00 | 0.00 | 0.00 | 30 | 1015.3 |
| 20260503210105 | 66 | 208 | 3.5 | 9.6 | 0.00 | 0.00 | 0.00 | 31 | 1015.3 |
| 20260503205600 | 66 | 183 | 4.3 | 12.2 | 0.00 | 0.00 | 0.00 | 32 | 1015.4 |
| 20260503205058 | 66 | 235 | 7.0 | 12.2 | 0.00 | 0.00 | 0.00 | 31 | 1015.4 |
| 20260503204559 | 66 | 200 | 4.3 | 12.2 | 0.00 | 0.00 | 0.00 | 31 | 1015.4 |
| 20260503204055 | 66 | 221 | 7.8 | 12.2 | 0.00 | 0.00 | 0.00 | 30 | 1015.5 |
| 20260503203555 | 66 | 222 | 4.3 | 8.7 | 0.00 | 0.00 | 0.00 | 30 | 1015.6 |
| 20260503203057 | 67 | 244 | 5.2 | 8.7 | 0.00 | 0.00 | 0.00 | 30 | 1015.7 |
| 20260503202554 | 67 | 185 | 3.5 | 9.6 | 0.00 | 0.00 | 0.00 | 30 | 1015.7 |
| 20260503202053 | 67 | 221 | 2.6 | 8.7 | 0.00 | 0.00 | 0.00 | 31 | 1015.7 |